When you browse on this site, cookies collect data to enhance your experience and personalize the content and advertising you see.
Visit our Privacy Policy to learn more. By continuing to use the site, you agree to this use of cookies and data.
  • In Hungary
  • List of Countries
  • For 7 days
  • Water Temperature
  • Weather Map
  • News
  • Weather Widgets
  • user-avatar
    Login

    Hourly Weather Yasenets'

    Today, 5 April, Sunday

    Time Temperature Precipitation Wind Pressure Humidity
    00:00 +2°C° 0 mm 2 mps 756 mmHg 58%
    01:00 +2°C° 0 mm 2 mps 756 mmHg 60%
    02:00 +1°C° 0 mm 2 mps 757 mmHg 61%
    03:00 +1°C° 0 mm 2 mps 757 mmHg 63%
    04:00 -1°C° 0 mm 2 mps 758 mmHg 65%
    05:00 -1°C° 0 mm 2 mps 758 mmHg 67%
    06:00 +1°C° 0 mm 2 mps 758 mmHg 64%
    07:00 +2°C° 0 mm 3 mps 759 mmHg 60%
    08:00 +3°C° 0 mm 3 mps 759 mmHg 57%
    09:00 +4°C° 0 mm 3 mps 760 mmHg 50%
    10:00 +7°C° 0 mm 3 mps 760 mmHg 42%
    11:00 +7°C° 0 mm 4 mps 760 mmHg 35%
    12:00 +8°C° 0 mm 4 mps 760 mmHg 34%
    13:00 +8°C° 0 mm 4 mps 760 mmHg 32%
    14:00 +10°C° 0 mm 4 mps 760 mmHg 31%
    15:00 +10°C° 0 mm 3 mps 760 mmHg 33%
    16:00 +10°C° 0 mm 3 mps 760 mmHg 34%
    17:00 +9°C° 0 mm 3 mps 760 mmHg 35%
    18:00 +8°C° 0 mm 2 mps 760 mmHg 41%
    19:00 +6°C° 0 mm 2 mps 760 mmHg 46%
    20:00 +6°C° 0 mm 1 mps 761 mmHg 52%
    21:00 +5°C° 0 mm 1 mps 761 mmHg 54%
    22:00 +5°C° 0 mm 1 mps 761 mmHg 56%
    23:00 +4°C° 0 mm 1 mps 761 mmHg 58%

    Tomorrow, 6 April, Monday

    Time Temperature Precipitation Wind Pressure Humidity
    00:00 +4°C° 0 mm 1 mps 761 mmHg 59%
    01:00 +4°C° 0 mm 1 mps 762 mmHg 60%
    02:00 +3°C° 0 mm 1 mps 762 mmHg 62%
    03:00 +3°C° 0 mm 1 mps 762 mmHg 63%
    04:00 +3°C° 0 mm 1 mps 762 mmHg 64%
    05:00 +2°C° 0 mm 1 mps 762 mmHg 66%
    06:00 +4°C° 0 mm 1 mps 762 mmHg 61%
    07:00 +5°C° 0 mm 1 mps 763 mmHg 56%
    08:00 +7°C° 0 mm 1 mps 763 mmHg 51%
    09:00 +9°C° 0 mm 1 mps 763 mmHg 46%
    10:00 +9°C° 0 mm 2 mps 763 mmHg 41%
    11:00 +12°C° 0 mm 2 mps 763 mmHg 36%
    12:00 +13°C° 0 mm 2 mps 763 mmHg 34%
    13:00 +13°C° 0 mm 2 mps 762 mmHg 32%
    14:00 +14°C° 0 mm 2 mps 762 mmHg 30%
    15:00 +14°C° 0 mm 2 mps 762 mmHg 31%
    16:00 +14°C° 0 mm 2 mps 762 mmHg 31%
    17:00 +14°C° 0 mm 1 mps 761 mmHg 32%
    18:00 +12°C° 0 mm 1 mps 761 mmHg 37%
    19:00 +10°C° 0 mm 1 mps 761 mmHg 42%
    20:00 +8°C° 0 mm 1 mps 761 mmHg 48%
    21:00 +7°C° 0 mm 0 mps 761 mmHg 50%
    22:00 +6°C° 0 mm 0 mps 762 mmHg 51%
    23:00 +5°C° 0 mm 0 mps 762 mmHg 53%

    Day after tomorrow, 7 April, Tuesday

    Time Temperature Precipitation Wind Pressure Humidity
    00:00 +5°C° 0 mm 0 mps 762 mmHg 54%
    01:00 +5°C° 0 mm 0 mps 762 mmHg 55%
    02:00 +5°C° 0 mm 0 mps 762 mmHg 56%
    03:00 +4°C° 0 mm 0 mps 762 mmHg 57%
    04:00 +4°C° 0 mm 0 mps 762 mmHg 57%
    05:00 +4°C° 0 mm 0 mps 762 mmHg 58%
    06:00 +5°C° 0 mm 0 mps 762 mmHg 54%
    07:00 +7°C° 0 mm 0 mps 762 mmHg 50%
    08:00 +9°C° 0 mm 0 mps 762 mmHg 46%
    09:00 +12°C° 0 mm 1 mps 762 mmHg 41%
    10:00 +13°C° 0 mm 1 mps 762 mmHg 36%
    11:00 +15°C° 0 mm 2 mps 762 mmHg 32%
    12:00 +16°C° 0 mm 2 mps 762 mmHg 30%
    13:00 +16°C° 0 mm 2 mps 762 mmHg 29%
    14:00 +17°C° 0 mm 2 mps 762 mmHg 28%
    15:00 +17°C° 0 mm 2 mps 761 mmHg 30%
    16:00 +16°C° 0 mm 2 mps 761 mmHg 32%
    17:00 +16°C° 0 mm 3 mps 760 mmHg 33%
    18:00 +14°C° 0 mm 2 mps 760 mmHg 39%
    19:00 +12°C° 0 mm 2 mps 760 mmHg 44%
    20:00 +9°C° 0 mm 2 mps 760 mmHg 49%
    21:00 +9°C° 0 mm 2 mps 760 mmHg 51%
    22:00 +8°C° 0 mm 2 mps 760 mmHg 53%
    23:00 +8°C° 0 mm 2 mps 760 mmHg 54%

    8 April, Wednesday

    Time Temperature Precipitation Wind Pressure Humidity
    00:00 +7°C° 0 mm 2 mps 759 mmHg 56%
    01:00 +7°C° 0 mm 3 mps 759 mmHg 57%
    02:00 +5°C° 0 mm 3 mps 759 mmHg 58%
    03:00 +5°C° 0 mm 3 mps 758 mmHg 58%
    04:00 +5°C° 0 mm 3 mps 758 mmHg 58%
    05:00 +5°C° 0 mm 3 mps 758 mmHg 58%
    06:00 +7°C° 0 mm 3 mps 758 mmHg 56%
    07:00 +7°C° 0 mm 4 mps 757 mmHg 53%
    08:00 +8°C° 0 mm 4 mps 757 mmHg 51%
    09:00 +12°C° 0 mm 4 mps 757 mmHg 47%
    10:00 +14°C° 0 mm 4 mps 756 mmHg 42%
    11:00 +17°C° 0 mm 4 mps 756 mmHg 38%
    12:00 +17°C° 0 mm 4 mps 756 mmHg 39%
    13:00 +18°C° 0 mm 4 mps 755 mmHg 39%
    14:00 +19°C° 0 mm 4 mps 755 mmHg 39%
    15:00 +19°C° 0 mm 4 mps 754 mmHg 42%
    16:00 +18°C° 0 mm 4 mps 754 mmHg 45%
    17:00 +18°C° 0 mm 4 mps 754 mmHg 48%
    18:00 +16°C° 0 mm 3 mps 754 mmHg 54%
    19:00 +14°C° 0 mm 2 mps 754 mmHg 59%
    20:00 +12°C° 0 mm 2 mps 753 mmHg 65%
    21:00 +11°C° 0 mm 1 mps 753 mmHg 65%
    22:00 +10°C° 0 mm 1 mps 753 mmHg 66%
    23:00 +9°C° 0 mm 1 mps 753 mmHg 66%

    9 April, Thursday

    Time Temperature Precipitation Wind Pressure Humidity
    00:00 +9°C° 0 mm 1 mps 753 mmHg 68%
    01:00 +9°C° 0 mm 1 mps 753 mmHg 70%
    02:00 +8°C° 0 mm 1 mps 752 mmHg 71%
    03:00 +8°C° 0 mm 1 mps 752 mmHg 71%
    04:00 +8°C° 0 mm 1 mps 752 mmHg 72%
    05:00 +8°C° 0 mm 1 mps 752 mmHg 72%
    06:00 +9°C° 0 mm 1 mps 751 mmHg 69%
    07:00 +10°C° 0 mm 2 mps 751 mmHg 66%
    08:00 +12°C° 0 mm 2 mps 751 mmHg 63%
    09:00 +14°C° 0 mm 2 mps 750 mmHg 60%
    10:00 +14°C° 0 mm 3 mps 750 mmHg 56%
    11:00 +16°C° 0 mm 3 mps 749 mmHg 52%
    12:00 +17°C° 0 mm 3 mps 749 mmHg 49%
    13:00 +17°C° 0 mm 3 mps 749 mmHg 47%
    14:00 +18°C° 0 mm 3 mps 748 mmHg 44%
    15:00 +17°C° 0 mm 3 mps 748 mmHg 45%
    16:00 +17°C° 0 mm 3 mps 747 mmHg 46%
    17:00 +17°C° 0 mm 3 mps 747 mmHg 47%
    18:00 +16°C° 0 mm 3 mps 747 mmHg 53%
    19:00 +13°C° 0 mm 3 mps 747 mmHg 59%
    20:00 +12°C° 0 mm 3 mps 747 mmHg 64%
    21:00 +12°C° 0.1 mm 3 mps 746 mmHg 68%
    22:00 +11°C° 0.1 mm 3 mps 746 mmHg 73%
    23:00 +11°C° 0.1 mm 3 mps 746 mmHg 77%

    10 April, Friday

    Time Temperature Precipitation Wind Pressure Humidity
    00:00 +10°C° 0.1 mm 3 mps 746 mmHg 76%
    01:00 +10°C° 0.1 mm 3 mps 746 mmHg 75%
    02:00 +9°C° 0.1 mm 3 mps 746 mmHg 75%
    03:00 +8°C° 0 mm 3 mps 746 mmHg 75%
    04:00 +7°C° 0 mm 3 mps 746 mmHg 75%
    05:00 +5°C° 0 mm 3 mps 746 mmHg 76%
    06:00 +5°C° 0 mm 4 mps 747 mmHg 74%
    07:00 +5°C° 0 mm 4 mps 747 mmHg 72%
    08:00 +5°C° 0 mm 5 mps 748 mmHg 70%
    09:00 +6°C° 0 mm 5 mps 748 mmHg 60%
    10:00 +8°C° 0 mm 6 mps 748 mmHg 50%
    11:00 +9°C° 0 mm 6 mps 748 mmHg 41%
    12:00 +9°C° 0 mm 6 mps 749 mmHg 38%
    13:00 +9°C° 0 mm 6 mps 749 mmHg 36%
    14:00 +10°C° 0 mm 6 mps 749 mmHg 33%
    15:00 +9°C° 0 mm 6 mps 749 mmHg 34%
    16:00 +9°C° 0 mm 6 mps 749 mmHg 35%
    17:00 +8°C° 0 mm 6 mps 749 mmHg 36%
    18:00 +7°C° 0 mm 5 mps 750 mmHg 42%
    19:00 +7°C° 0 mm 3 mps 750 mmHg 47%
    20:00 +5°C° 0 mm 2 mps 750 mmHg 53%
    21:00 +5°C° 0 mm 2 mps 750 mmHg 56%
    22:00 +4°C° 0 mm 2 mps 750 mmHg 59%
    23:00 +3°C° 0 mm 2 mps 751 mmHg 62%
    Show more